STARLINK-4350, 53045

Orbit data source: Space-Track

STARLINK-4350, 53045 is a payload satellite owned by SpaceX/Seattle (US) in SSO that was launched on Mon, 11 Jul 2022 UTC via an FALCON 9 launch vehicle from the Air Force Western Test Range (AFWTR). Payload-class satellites include a variety of spacecraft equipped with specific instruments for various scientific and technological missions. These include communications satellites like Starlink; space stations such as the ISS; scientific satellites like the Hubble; Earth observation satellites from companies like Planet Labs, Umbra, and HawkEye 360; GPS; miniature CubeSats for education and research; and military/defense satellites.

Loading next visibility...
Identifier
53045, 2022-077C
Orbit
SSO
Country
Flag of USUS
Related business
Manufacturer
SpaceX/Seattle
Mission
Operational Commercial Communications
Bus & Motor
STARLINK, Unknown motor
Mass
297 kg wet, ~275 kg dry
Launch date (UTC)
2022-07-11 (3 years ago)
Launch vehicle
FALCON 9
Launch site
Air Force Western Test Range (AFWTR)
Object type
Payload
Rocket body
Debris
Shape & HBR
Box + 1 Pan, 10.1 m
Radar Cross Section
13.562 m², Large (>1 m²)

Expand to show TLE details & history
Last TLE update: 19 hours ago

TLE from 19 hours ago
0 STARLINK-4350
1 53045U 22077C   25349.26319670  .00000177  00000-0  16477-4 0  9996
2 53045  97.6017 167.9974 0001501  85.5247 274.6152 15.05651645188282
Epoch: 2025-12-15T06:19Z
TLE epoch observation values (Epoch: 2025-12-15T06:19:00.194Z)
Latitude
0.00003°
Longitude
-10.91768°
Altitude
552.488 km
Speed
7.586 km/s
True Right ascension
11h 11m 59s
True Declination
0° 00' 00"
Sunlit
Object was in daylight at epoch
Visualization orbit readout
Latitude
Unknown
Longitude
Unknown
Altitude
Unknown
Speed
Unknown
Apparent Right ascension
Unknown
Apparent Declination
Unknown
Sunlit
N/A
Visualization observer readout
Local Sidereal Time
00:19:41
Azimuth
Unknown
Elevation
Unknown
Doppler factor
Unknown
Orbital elements
Apogee altitude
547.539 km
Perigee altitude
545.46 km
Semi-major axis
6,924.637 km
Eccentricity
0.00015
Inclination
97.6017°
RAAN
167.9974°
Arg. of periapsis
85.5247°
True anomaly
274.59806°
Mean anomaly
274.6152°
Eccentric anomaly
274.60663°
Mean motion
3.76658 °/min
Orbital period
95.58 mins
BSTAR
0.000016477
Loading maneuver chart data...
Computing Atmospheric mass density...
Loading historical data...
Loading historical data...
Loading historical data...
Loading historical data...
Loading historical data...
Loading historical data...
Loading historical data...

Documentation

Showing up to 5 results
|